TimeCDT,TemperatureF,Dew PointF,Humidity,Sea Level PressureIn,VisibilityMPH,Wind Direction,Wind SpeedMPH,Gust SpeedMPH,PrecipitationIn,Events,Conditions,WindDirDegrees,DateUTC
12:05 AM,48.2,48.2,100,29.64,10.0,NE,12.7,-,N/A,,Mostly Cloudy,50,2014-04-13 05:05:00
12:15 AM,47.7,47.7,100,29.65,10.0,NE,10.4,-,N/A,,Mostly Cloudy,40,2014-04-13 05:15:00
12:25 AM,48.2,48.2,100,29.65,10.0,NE,10.4,-,N/A,,Mostly Cloudy,40,2014-04-13 05:25:00
12:35 AM,48.0,48.0,100,29.66,10.0,NE,10.4,-,N/A,Thunderstorm,Mostly Cloudy,40,2014-04-13 05:35:00
12:45 AM,48.2,48.2,100,29.65,10.0,NE,11.5,-,N/A,Thunderstorm,Overcast,40,2014-04-13 05:45:00
12:55 AM,48.2,48.2,100,29.66,10.0,NE,10.4,-,N/A,,Overcast,40,2014-04-13 05:55:00
1:04 AM,48.2,48.2,100,29.65,10.0,NE,8.1,-,N/A,,Overcast,40,2014-04-13 06:04:00
1:15 AM,47.8,47.8,100,29.65,10.0,NNE,9.2,-,N/A,Thunderstorm,Overcast,30,2014-04-13 06:15:00
1:35 AM,48.2,48.2,100,29.69,10.0,North,15.0,28.8,N/A,Rain-Thunderstorm,Light Thunderstorms and Rain,350,2014-04-13 06:35:00
1:44 AM,48.2,48.2,100,29.69,10.0,North,12.7,20.7,N/A,Rain-Thunderstorm,Light Thunderstorms and Rain,10,2014-04-13 06:44:00
1:55 AM,50.0,50.0,100,29.68,10.0,NNE,5.8,-,0.01,Rain-Thunderstorm,Light Thunderstorms and Rain,30,2014-04-13 06:55:00
2:05 AM,50.0,50.0,100,29.66,10.0,North,11.5,17.3,N/A,Rain-Thunderstorm,Light Thunderstorms and Rain,10,2014-04-13 07:05:00
2:20 AM,50.9,50.9,100,29.68,4.0,NNE,8.1,-,0.07,Rain-Thunderstorm,Heavy Thunderstorms and Rain,20,2014-04-13 07:20:00
2:25 AM,51.8,51.8,100,29.68,4.0,North,12.7,-,0.08,Rain-Thunderstorm,Thunderstorms and Rain,360,2014-04-13 07:25:00
2:35 AM,51.1,51.1,100,29.75,7.0,West,5.8,10.4,0.13,Rain-Thunderstorm,Heavy Thunderstorms and Rain,260,2014-04-13 07:35:00
2:55 AM,-9999,-9999,N/A,29.68,5.0,NNW,6.9,-,0.24,Rain-Thunderstorm,Light Thunderstorms and Rain,340,2014-04-13 07:55:00
3:05 AM,-9999,-9999,N/A,29.68,10.0,NNW,8.1,20.7,N/A,Rain,Light Rain,330,2014-04-13 08:05:00
3:15 AM,-9999,-9999,N/A,29.68,10.0,NW,6.9,-,N/A,,Light Drizzle,320,2014-04-13 08:15:00
3:25 AM,53.6,53.6,100,29.67,10.0,North,6.9,-,N/A,,Light Drizzle,350,2014-04-13 08:25:00
3:35 AM,-9999,-9999,N/A,29.60,10.0,NNE,15.0,-,N/A,,Scattered Clouds,30,2014-04-13 08:35:00
3:45 AM,-9999,-9999,N/A,29.66,10.0,North,8.1,16.1,N/A,,Clear,10,2014-04-13 08:45:00
4:05 AM,-9999,-9999,N/A,29.68,10.0,ENE,5.8,-,N/A,,Scattered Clouds,70,2014-04-13 09:05:00
4:15 AM,-9999,-9999,N/A,29.68,10.0,East,5.8,-,N/A,,Scattered Clouds,100,2014-04-13 09:15:00
4:25 AM,-9999,-9999,N/A,29.68,7.0,SE,3.5,-,N/A,,Scattered Clouds,130,2014-04-13 09:25:00
4:35 AM,-9999,-9999,N/A,29.68,7.0,South,3.5,-,N/A,,Mostly Cloudy,170,2014-04-13 09:35:00
4:45 AM,-9999,-9999,N/A,29.62,5.0,ENE,11.5,-,N/A,,Haze,60,2014-04-13 09:45:00
4:55 AM,-9999,-9999,N/A,29.58,7.0,NNE,16.1,-,N/A,,Overcast,30,2014-04-13 09:55:00
5:05 AM,-9999,-9999,N/A,29.58,0.5,NNE,11.5,-,N/A,Fog,Fog,30,2014-04-13 10:05:00
5:15 AM,-9999,-9999,N/A,29.62,1.8,North,6.9,18.4,N/A,,Light Drizzle,10,2014-04-13 10:15:00
5:25 AM,-9999,-9999,N/A,29.66,5.0,Calm,Calm,-,N/A,,Haze,0,2014-04-13 10:25:00
5:35 AM,-9999,-9999,N/A,29.68,7.0,Calm,Calm,-,N/A,,Scattered Clouds,0,2014-04-13 10:35:00
5:45 AM,-9999,-9999,N/A,29.68,7.0,Calm,Calm,-,N/A,,Scattered Clouds,0,2014-04-13 10:45:00
5:55 AM,-9999,-9999,N/A,29.68,5.0,ESE,4.6,-,N/A,,Haze,110,2014-04-13 10:55:00
6:05 AM,-9999,-9999,N/A,29.68,4.0,Calm,Calm,-,N/A,,Clear,0,2014-04-13 11:05:00
6:20 AM,-9999,-9999,N/A,29.67,7.0,NE,5.8,-,N/A,,Clear,40,2014-04-13 11:20:00
6:24 AM,-9999,-9999,N/A,29.67,5.0,NNE,4.6,-,N/A,,Haze,30,2014-04-13 11:24:00
6:35 AM,-9999,-9999,N/A,29.68,3.0,East,4.6,-,N/A,,Clear,90,2014-04-13 11:35:00
6:45 AM,-9999,-9999,N/A,29.70,0.8,SSE,6.9,-,N/A,,Mist,150,2014-04-13 11:45:00
6:55 AM,-9999,-9999,N/A,29.73,1.0,South,9.2,16.1,N/A,,Mostly Cloudy,190,2014-04-13 11:55:00
7:15 AM,-9999,-9999,N/A,29.75,4.0,SSW,11.5,-,N/A,,Haze,210,2014-04-13 12:15:00
7:24 AM,-9999,-9999,N/A,29.75,5.0,SW,8.1,-,N/A,,Haze,220,2014-04-13 12:24:00
7:35 AM,-9999,-9999,N/A,29.75,7.0,West,5.8,-,N/A,,Mostly Cloudy,270,2014-04-13 12:35:00
7:55 AM,-9999,-9999,N/A,29.74,7.0,West,4.6,-,N/A,,Scattered Clouds,260,2014-04-13 12:55:00
8:04 AM,53.6,53.6,100,29.73,-9999.0,Calm,Calm,-,N/A,,Unknown,0,2014-04-13 13:04:00
8:15 AM,52.7,52.7,100,29.72,7.0,NNE,6.9,-,N/A,,Unknown,30,2014-04-13 13:15:00
8:25 AM,51.8,51.8,100,29.73,3.0,North,4.6,-,N/A,,Scattered Clouds,10,2014-04-13 13:25:00
8:35 AM,-9999,-9999,N/A,29.73,4.0,NNW,4.6,-,N/A,,Clear,340,2014-04-13 13:35:00
8:44 AM,-9999,-9999,N/A,29.71,5.0,NNE,5.8,-,N/A,,Haze,30,2014-04-13 13:44:00
8:55 AM,-9999,-9999,N/A,29.72,4.0,North,8.1,-,N/A,,Haze,350,2014-04-13 13:55:00
9:04 AM,-9999,-9999,N/A,29.70,4.0,NNE,6.9,-,N/A,,Haze,20,2014-04-13 14:04:00
9:15 AM,-9999,-9999,N/A,29.68,5.0,NE,6.9,-,N/A,,Haze,40,2014-04-13 14:15:00
9:24 AM,55.4,55.4,100,29.68,7.0,NE,6.9,-,N/A,,Scattered Clouds,40,2014-04-13 14:24:00
9:35 AM,55.4,55.4,100,29.70,10.0,NE,3.5,-,N/A,,Scattered Clouds,50,2014-04-13 14:35:00
9:44 AM,55.4,55.4,100,29.72,10.0,ESE,5.8,-,N/A,,Mostly Cloudy,110,2014-04-13 14:44:00
9:55 AM,55.8,55.8,100,29.75,10.0,SE,3.5,-,N/A,,Mostly Cloudy,140,2014-04-13 14:55:00
10:04 AM,55.4,55.4,100,29.75,10.0,SE,3.5,-,N/A,,Overcast,130,2014-04-13 15:04:00
10:15 AM,56.3,56.3,100,29.75,10.0,East,3.5,-,N/A,,Overcast,90,2014-04-13 15:15:00
10:24 AM,57.2,57.2,100,29.73,10.0,NE,6.9,-,N/A,,Overcast,40,2014-04-13 15:24:00
10:35 AM,56.5,56.5,100,29.72,10.0,NE,10.4,-,N/A,,Mostly Cloudy,40,2014-04-13 15:35:00
10:45 AM,55.4,55.4,100,29.72,5.0,NE,12.7,-,N/A,,Mostly Cloudy,40,2014-04-13 15:45:00
10:55 AM,-9999,-9999,N/A,29.74,1.0,NE,10.4,-,N/A,,Overcast,40,2014-04-13 15:55:00
11:04 AM,-9999,-9999,N/A,29.75,0.5,NE,8.1,-,N/A,Fog,Fog,50,2014-04-13 16:04:00
11:15 AM,-9999,-9999,N/A,29.77,0.5,NNE,8.1,-,N/A,Fog,Fog,20,2014-04-13 16:15:00
11:24 AM,-9999,-9999,N/A,29.77,0.2,NNE,9.2,-,N/A,Fog,Fog,30,2014-04-13 16:24:00
11:35 AM,-9999,-9999,N/A,29.77,0.8,NNE,9.2,-,N/A,,Overcast,30,2014-04-13 16:35:00
11:44 AM,-9999,-9999,N/A,29.77,0.8,NNE,9.2,-,N/A,,Overcast,20,2014-04-13 16:44:00
11:55 AM,-9999,-9999,N/A,29.76,0.8,NNE,10.4,-,N/A,,Overcast,20,2014-04-13 16:55:00
12:05 PM,-9999,-9999,N/A,29.76,1.2,NNE,10.4,-,N/A,,Overcast,30,2014-04-13 17:05:00
12:15 PM,-9999,-9999,N/A,29.75,1.0,NNE,12.7,-,N/A,,Overcast,30,2014-04-13 17:15:00
12:35 PM,-9999,-9999,N/A,29.73,0.8,NE,15.0,-,N/A,,Overcast,40,2014-04-13 17:35:00
12:45 PM,-9999,-9999,N/A,29.72,0.5,NNE,12.7,-,N/A,Fog,Fog,30,2014-04-13 17:45:00
1:00 PM,-9999,-9999,N/A,29.71,0.5,NE,13.8,-,N/A,Fog,Fog,40,2014-04-13 18:00:00
1:04 PM,-9999,-9999,N/A,29.71,0.5,NE,15.0,-,N/A,Fog,Fog,40,2014-04-13 18:04:00
1:15 PM,-9999,-9999,N/A,29.71,0.8,NE,15.0,-,N/A,,Overcast,40,2014-04-13 18:15:00
1:24 PM,-9999,-9999,N/A,29.71,2.5,NE,13.8,-,N/A,,Overcast,40,2014-04-13 18:24:00
1:35 PM,-9999,-9999,N/A,29.70,5.0,NE,13.8,-,N/A,,Haze,50,2014-04-13 18:35:00
1:44 PM,-9999,-9999,N/A,29.69,4.0,NE,12.7,-,N/A,,Haze,40,2014-04-13 18:44:00
1:55 PM,-9999,-9999,N/A,29.69,4.0,ENE,12.7,-,N/A,,Haze,60,2014-04-13 18:55:00
2:04 PM,-9999,-9999,N/A,29.68,4.0,NE,10.4,-,N/A,Rain,Light Rain,50,2014-04-13 19:04:00
2:15 PM,-9999,-9999,N/A,29.68,3.0,ENE,11.5,16.1,0.01,Rain,Rain,60,2014-04-13 19:15:00
2:24 PM,-9999,-9999,N/A,29.68,3.0,ENE,11.5,16.1,0.02,Rain,Light Rain,60,2014-04-13 19:24:00
2:35 PM,-9999,-9999,N/A,29.68,3.0,ENE,10.4,-,0.02,Rain,Light Rain,60,2014-04-13 19:35:00
2:44 PM,-9999,-9999,N/A,29.67,3.0,ENE,10.4,-,0.04,Rain,Rain,70,2014-04-13 19:44:00
2:55 PM,-9999,-9999,N/A,29.67,3.0,ENE,9.2,-,0.06,Rain,Light Rain,70,2014-04-13 19:55:00
3:04 PM,-9999,-9999,N/A,29.67,3.0,ENE,8.1,-,0.02,Rain,Rain,70,2014-04-13 20:04:00
3:15 PM,-9999,-9999,N/A,29.66,3.0,ENE,9.2,-,0.04,Rain,Rain,60,2014-04-13 20:15:00
3:25 PM,-9999,-9999,N/A,29.65,3.0,NE,12.7,-,0.07,Rain,Rain,40,2014-04-13 20:25:00
3:35 PM,-9999,-9999,N/A,29.65,4.0,NE,12.7,-,0.08,Rain,Rain,40,2014-04-13 20:35:00
3:55 PM,-9999,-9999,N/A,29.65,2.5,NE,9.2,-,0.15,Rain,Rain,40,2014-04-13 20:55:00
4:04 PM,-9999,-9999,N/A,29.64,2.5,NE,11.5,-,0.03,Rain,Rain,40,2014-04-13 21:04:00
4:15 PM,-9999,-9999,N/A,29.63,1.8,NE,12.7,-,0.09,Rain,Heavy Rain,40,2014-04-13 21:15:00
4:24 PM,-9999,-9999,N/A,29.63,1.2,NE,10.4,-,0.14,Rain,Rain,50,2014-04-13 21:24:00
4:35 PM,-9999,-9999,N/A,29.60,1.5,NE,13.8,19.6,0.18,Rain,Rain,50,2014-04-13 21:35:00
4:45 PM,-9999,-9999,N/A,29.58,0.8,NE,16.1,20.7,0.20,Rain,Light Rain,50,2014-04-13 21:45:00
4:55 PM,-9999,-9999,N/A,29.57,1.2,NE,15.0,21.9,0.21,Rain,Light Rain,50,2014-04-13 21:55:00
5:04 PM,-9999,-9999,N/A,29.57,2.0,NE,13.8,20.7,N/A,Rain,Light Rain,50,2014-04-13 22:04:00
5:15 PM,-9999,-9999,N/A,29.57,4.0,ENE,13.8,19.6,0.01,Rain,Light Rain,60,2014-04-13 22:15:00
5:25 PM,-9999,-9999,N/A,29.58,3.0,East,12.7,23.0,0.03,Rain,Rain,80,2014-04-13 22:25:00
5:35 PM,-9999,-9999,N/A,29.57,2.5,East,19.6,28.8,0.08,Rain,Rain,80,2014-04-13 22:35:00
5:44 PM,-9999,-9999,N/A,29.55,4.0,ENE,17.3,29.9,0.10,Rain,Light Rain,70,2014-04-13 22:44:00
5:55 PM,-9999,-9999,N/A,29.55,5.0,ENE,18.4,25.3,0.10,Rain,Light Rain,70,2014-04-13 22:55:00
6:05 PM,-9999,-9999,N/A,29.53,7.0,East,16.1,27.6,0.01,Rain,Rain,80,2014-04-13 23:05:00
6:15 PM,-9999,-9999,N/A,29.53,5.0,ENE,12.7,24.2,0.02,Rain,Rain,70,2014-04-13 23:15:00
6:24 PM,48.2,48.2,100,29.52,4.0,ENE,18.4,26.5,0.05,Rain,Rain,70,2014-04-13 23:24:00
6:35 PM,48.2,48.2,100,29.51,1.8,East,23.0,32.2,0.14,Rain,Heavy Rain,80,2014-04-13 23:35:00
6:44 PM,46.4,46.4,100,29.51,2.0,ENE,17.3,31.1,0.19,Rain,Light Rain,70,2014-04-13 23:44:00
6:55 PM,46.6,46.6,100,29.50,3.0,ENE,13.8,26.5,0.23,Rain,Rain,70,2014-04-13 23:55:00
7:04 PM,46.4,46.4,100,29.50,5.0,ENE,23.0,31.1,0.01,Rain,Light Rain,70,2014-04-14 00:04:00
7:15 PM,45.5,45.5,100,29.50,5.0,ENE,18.4,31.1,0.01,Rain,Light Rain,70,2014-04-14 00:15:00
7:24 PM,44.6,44.6,100,29.50,7.0,ENE,15.0,23.0,0.01,Rain,Light Rain,60,2014-04-14 00:24:00
7:35 PM,-9999,-9999,N/A,29.50,10.0,ENE,18.4,25.3,0.01,,Overcast,60,2014-04-14 00:35:00
7:44 PM,-9999,-9999,N/A,29.49,10.0,ENE,21.9,25.3,0.01,,Light Drizzle,60,2014-04-14 00:44:00
7:55 PM,-9999,-9999,N/A,29.48,10.0,ENE,13.8,24.2,0.01,,Light Drizzle,60,2014-04-14 00:55:00
8:05 PM,-9999,-9999,N/A,29.48,4.0,ENE,13.8,21.9,0.04,Rain,Heavy Rain,60,2014-04-14 01:05:00
8:15 PM,-9999,-9999,N/A,29.48,3.0,ENE,15.0,20.7,0.10,Rain,Light Rain,60,2014-04-14 01:15:00
8:24 PM,-9999,-9999,N/A,29.48,4.0,ENE,12.7,20.7,0.14,Rain,Rain,60,2014-04-14 01:24:00
8:35 PM,-9999,-9999,N/A,29.48,7.0,NE,12.7,18.4,0.15,Rain,Light Rain,50,2014-04-14 01:35:00
8:55 PM,-9999,-9999,N/A,29.49,7.0,NNE,12.7,17.3,0.16,Rain,Rain,20,2014-04-14 01:55:00
9:04 PM,-9999,-9999,N/A,29.51,7.0,North,15.0,-,0.01,Rain,Rain,350,2014-04-14 02:04:00
9:15 PM,-9999,-9999,N/A,29.49,10.0,North,19.6,26.5,0.01,,Drizzle,10,2014-04-14 02:15:00
9:24 PM,-9999,-9999,N/A,29.50,7.0,North,16.1,24.2,0.04,Rain,Rain,350,2014-04-14 02:24:00
9:35 PM,-9999,-9999,N/A,29.50,3.0,North,18.4,26.5,0.10,Rain,Rain,360,2014-04-14 02:35:00
9:44 PM,-9999,-9999,N/A,29.50,7.0,North,17.3,26.5,0.12,Rain,Rain,10,2014-04-14 02:44:00
9:55 PM,-9999,-9999,N/A,29.50,10.0,North,20.7,26.5,0.12,Rain,Light Rain,10,2014-04-14 02:55:00
10:04 PM,-9999,-9999,N/A,29.49,10.0,North,19.6,28.8,N/A,Rain,Rain,10,2014-04-14 03:04:00
10:15 PM,-9999,-9999,N/A,29.49,10.0,NNE,18.4,27.6,0.01,Rain,Light Rain,20,2014-04-14 03:15:00
10:24 PM,44.6,44.6,100,29.47,10.0,NNE,23.0,-,0.01,Rain,Light Rain,20,2014-04-14 03:24:00
10:35 PM,44.1,44.1,100,29.47,10.0,NNE,19.6,28.8,0.01,Rain,Light Rain,20,2014-04-14 03:35:00
10:44 PM,44.6,44.6,100,29.47,10.0,North,20.7,28.8,0.01,,Overcast,10,2014-04-14 03:44:00
10:55 PM,43.9,43.9,100,29.46,10.0,North,21.9,28.8,0.02,Rain,Rain,10,2014-04-14 03:55:00
11:05 PM,44.6,44.6,100,29.46,4.0,North,21.9,28.8,0.01,Rain,Rain,10,2014-04-14 04:05:00
11:15 PM,43.2,43.2,100,29.46,2.5,North,19.6,27.6,0.06,Rain,Light Rain,10,2014-04-14 04:15:00
11:25 PM,42.8,42.8,100,29.46,7.0,NNE,21.9,28.8,0.07,Rain,Light Rain,20,2014-04-14 04:25:00
11:35 PM,-9999,-9999,N/A,29.46,7.0,NNE,23.0,28.8,0.07,Rain,Rain,20,2014-04-14 04:35:00
11:45 PM,-9999,-9999,N/A,29.46,10.0,NNE,20.7,29.9,0.08,Rain,Light Rain,20,2014-04-14 04:45:00
11:55 PM,-9999,-9999,N/A,29.45,7.0,NNE,20.7,27.6,0.09,Rain,Rain,20,2014-04-14 04:55:00